x

8725520 - Fort Myers, Fl (fmrf1) Weather Station

11:54am - Sun 1st Mar 2015 All times are EST. -5 hours from GMT.

  • Wind
    7mph, 11mph gusts
  • Sea Temp 71°f
  • Air Temp 81°f
  • Sea Pressure 1025.6mb
  • 8725520 - Fort Myers, Fl
  • 8725520 - Fort Myers, Fl

More Historic Weather Station data

Upgrade to MSW Pro to gain access to the past 30 days of data for over 8000 Wavebouys and Weather Stations around the globe.

Join Pro

Comparision Forecast

View Surf forecast
   
Sun 03/01 11:54am 7 11 mph 1025.6mb 71f 81f
11:48am 5 9 mph 1025.8mb 71f -
11:42am 6 9 mph 1025.9mb 71f 79f
11:36am 7 13 mph 1026mb 70f 78f
11:30am 6 9 mph 1026mb 70f 79f
11:24am 6 13 mph 1026.1mb 70f 79f
11:18am 5 10 mph 1026.1mb 70f 79f
11:12am 6 11 mph 1026.2mb 70f 78f
11:06am 6 10 mph 1026.2mb 70f 78f
11:00am 8 14 mph 1026.2mb 70f 78f
10:54am 3 11 mph 1026.2mb 70f 78f
10:48am 3 10 mph 1026.2mb 70f 79f
10:42am 8 14 mph 1026.2mb 70f 78f
10:36am 8 16 mph 1026.1mb 70f 78f
10:30am 7 13 mph 1026.1mb 71f 78f
10:24am 6 13 mph 1026.2mb 71f 77f
10:18am 8 14 mph 1026.1mb 71f 76f
10:12am 5 16 mph 1026.2mb 71f 76f
10:06am 10 14 mph 1026.2mb 71f 76f
10:00am 7 13 mph 1026.2mb 71f 76f
9:54am 6 9 mph 1026.3mb 71f 75f
9:48am 8 11 mph 1026.3mb 71f 75f
9:42am 8 13 mph 1026.2mb 71f 74f
9:24am 2 7 mph 1026.3mb - -
9:18am 8 11 mph 1026.2mb 71f 74f
9:12am 5 7 mph 1026.2mb 71f 74f
9:06am 3 9 mph 1026.2mb 71f 74f
9:00am 6 10 mph 1026.1mb 71f 73f
8:54am 3 6 mph 1026.1mb 71f 73f
8:48am 5 9 mph 1026mb 71f 73f
8:42am 6 9 mph 1025.9mb 71f 72f
8:36am 6 9 mph 1025.8mb 71f 72f
8:30am 6 9 mph 1025.7mb 71f 71f
8:24am 7 11 mph 1025.6mb 71f 71f
8:00am 6 8 mph 1025.4mb 71f 70f
7:54am 5 8 mph 1025.4mb 71f 70f
7:48am 5 8 mph 1025.3mb 71f 69f
7:42am 5 9 mph 1025.2mb 71f 69f
7:36am 6 9 mph 1025.2mb 71f 69f
7:30am 6 9 mph 1025.2mb 71f 69f
7:24am 6 8 mph 1025.1mb 71f 69f
7:18am 6 8 mph 1025.1mb 71f 69f
7:12am 6 9 mph 1025mb 71f 69f
7:06am 5 8 mph 1024.9mb 71f 69f
7:00am 5 7 mph 1024.9mb 71f 69f
6:54am 5 8 mph 1024.9mb 71f 69f
6:48am 3 10 mph 1024.9mb 71f 69f
6:42am 6 9 mph 1024.8mb 71f 69f
6:36am 3 8 mph 1024.8mb 71f 69f
6:30am 6 10 mph 1024.7mb 71f 69f
6:24am 5 8 mph 1024.7mb 71f 69f
6:18am 6 8 mph 1024.6mb 71f 69f
6:12am 6 10 mph 1024.6mb 71f 69f
6:06am 6 8 mph 1024.5mb 71f 69f
6:00am 5 10 mph 1024.5mb 71f 69f
5:54am 6 9 mph 1024.4mb 71f 69f
5:48am 5 7 mph 1024.4mb 71f 69f
5:42am 6 7 mph 1024.4mb 71f 69f
5:36am 6 8 mph 1024.3mb 71f 69f
5:30am 6 8 mph 1024.3mb 71f 69f
5:24am 6 8 mph 1024.2mb 71f 69f
5:18am 5 8 mph 1024.2mb 71f 69f
5:12am 6 9 mph 1024.1mb 71f 69f
5:06am 6 8 mph 1024.1mb 71f 69f
5:00am 5 7 mph 1024mb 71f 69f
4:54am 5 8 mph 1024.1mb 71f 69f
4:48am 3 6 mph 1024.1mb 71f 69f
4:42am 3 7 mph 1024.1mb 71f 69f
4:36am 5 7 mph 1024.1mb 71f 69f
4:30am 5 7 mph 1024.1mb 71f 69f
4:24am 3 8 mph 1024.1mb 71f 69f
4:18am 5 8 mph 1024mb 71f 69f
4:12am 6 10 mph 1024mb 71f 69f
4:06am 5 9 mph 1023.9mb 71f 69f
4:00am 6 7 mph 1023.9mb 71f 69f
3:54am 3 8 mph 1024mb 71f 69f
3:48am 6 8 mph 1024.1mb 71f 69f
3:42am 6 8 mph 1024.1mb 71f 69f
3:18am 3 7 mph 1024.2mb 71f 69f
3:12am 5 8 mph 1024.1mb 71f 69f
3:06am 5 7 mph 1024.1mb 71f 69f
3:00am 5 7 mph 1024.1mb 71f 69f
2:54am 5 8 mph 1024.1mb 71f 69f
2:48am 7 8 mph 1024.1mb 71f 69f
2:42am 6 7 mph 1024.2mb 71f 69f
2:36am 6 7 mph 1024.2mb 71f 69f
2:30am 6 7 mph 1024.3mb 71f 69f
2:24am 5 7 mph 1024.3mb 71f 69f
2:18am 6 7 mph 1024.4mb 71f 69f
2:12am 6 8 mph 1024.5mb 71f 69f
2:06am 6 7 mph 1024.6mb 71f 69f
2:00am 6 7 mph 1024.7mb 71f 69f
1:54am 6 7 mph 1024.7mb 71f 69f
1:48am 6 9 mph 1024.8mb 71f 69f
1:42am 6 7 mph 1024.8mb 71f 69f
1:18am 7 9 mph 1025.1mb 71f 69f
12:54am 8 9 mph 1025.1mb 70f 69f
12:48am 7 8 mph 1025.1mb 70f 69f
12:42am 7 8 mph 1025.1mb 70f 69f
12:36am 7 9 mph 1025.2mb 70f 69f
12:30am 7 9 mph 1025.3mb 71f 69f
12:24am 7 10 mph 1025.4mb 71f 69f
12:18am 9 11 mph - - -
12:12am 8 11 mph 1025.4mb 71f 69f
12:06am 7 9 mph 1025.4mb 71f 69f
12:00am 8 9 mph 1025.4mb 71f 69f
Sat 02/28 11:54pm 6 9 mph 1025.4mb 70f 70f
11:48pm 3 11 mph 1025.4mb 70f 70f
Thu 02/26 4:00am 9 15 mph 1007.8mb 72f 71f
3:54am 9 20 mph 1007.9mb 72f 71f
3:48am 10 18 mph 1008mb 72f 71f
3:42am 11 15 mph 1007.9mb 73f 71f
3:36am 7 13 mph 1008.1mb 73f 71f
3:30am 9 18 mph 1008.1mb 72f 71f
3:24am 6 18 mph 1008.2mb 72f 71f
3:18am 9 16 mph 1008mb 72f 71f
3:12am 8 13 mph 1008.1mb 72f 71f
3:06am 7 13 mph 1008.3mb 72f 71f
3:00am 7 14 mph 1008.3mb 72f 71f
2:54am 8 17 mph 1008.2mb 72f 71f
2:48am 9 20 mph 1008.3mb 72f 71f
2:42am 8 13 mph 1008.3mb 72f 72f
2:36am 7 18 mph 1008.1mb 72f 72f
2:30am 9 16 mph 1007.9mb 72f 72f
2:24am 13 20 mph 1007.8mb 72f 72f
2:18am 8 20 mph 1007.6mb 72f 72f
2:12am 8 16 mph 1007.6mb 72f 72f
2:06am 9 21 mph 1007.6mb 72f 72f
2:00am 10 20 mph 1007.5mb 72f 72f
1:54am 10 28 mph 1007.5mb 72f 72f
1:48am 13 23 mph 1007.6mb 72f 72f
1:42am 13 25 mph 1007.7mb 72f 72f
1:18am 11 21 mph 1008mb 72f 73f
1:12am 9 17 mph 1008.2mb 72f 73f
12:54am 10 18 mph 1008.4mb 72f 73f
12:48am 11 22 mph 1008.4mb 72f 73f
12:42am 14 21 mph 1008.4mb 72f 73f
12:36am 14 25 mph 1008.4mb 72f 73f
12:30am 8 24 mph 1008.3mb 72f 73f
12:24am 14 23 mph 1008.4mb 72f 73f
12:18am 9 26 mph 1008.4mb 72f 73f
12:12am 11 20 mph 1008.5mb 72f 73f
12:06am 11 20 mph 1008.5mb 72f 73f
12:00am 9 18 mph 1008.6mb 72f 73f
Wed 02/25 11:54pm 9 21 mph 1008.7mb 72f 73f
11:48pm 11 24 mph 1008.7mb 72f 73f
11:42pm 7 18 mph 1008.7mb 72f 73f
11:36pm 8 18 mph 1008.7mb 72f 73f
11:30pm 9 17 mph 1008.8mb 72f 73f
11:24pm 10 15 mph 1008.8mb 72f 73f
11:18pm 11 18 mph 1008.8mb 72f 73f
11:12pm 9 17 mph 1008.9mb 72f 73f
11:06pm 10 20 mph 1009mb 72f 73f
10:48pm 9 17 mph 1008.9mb 72f 73f
10:42pm 8 21 mph 1008.9mb 72f 73f
10:36pm 10 18 mph 1008.9mb 72f 72f
10:30pm 7 16 mph 1009mb 72f 72f
10:24pm 10 21 mph 1009mb 72f 72f
10:18pm 10 17 mph 1009.1mb 72f 72f
10:12pm 9 21 mph 1009.1mb 72f 72f
10:06pm 8 18 mph 1009.1mb 72f 72f
10:00pm 6 15 mph 1009.1mb 72f 72f
9:54pm 8 18 mph 1009.1mb 72f 72f
9:48pm 7 17 mph 1009.1mb 72f 72f
9:42pm 9 14 mph 1009.1mb 72f 72f
9:36pm 8 20 mph 1009.2mb 72f 72f
9:30pm 8 16 mph 1009.2mb 72f 72f
9:24pm 6 14 mph 1009.2mb 72f 72f
9:18pm 8 14 mph 1009.1mb 72f 72f
9:12pm 9 18 mph 1009.1mb 72f 72f
9:06pm 7 15 mph 1009.1mb 72f 72f
9:00pm 9 18 mph 1009.1mb 72f 72f
8:54pm 7 16 mph 1009.1mb 72f 72f
8:48pm 8 15 mph 1009.1mb 72f 73f
8:42pm 8 13 mph 1009.1mb 72f 73f
8:36pm 9 15 mph 1009.1mb 72f 73f
8:30pm 8 16 mph 1009.1mb 72f 73f
8:24pm 8 16 mph 1009.2mb 72f 73f
8:18pm 8 18 mph 1009.1mb 72f 73f
8:12pm 9 15 mph 1009.2mb 72f 73f
8:06pm 8 17 mph 1009.1mb 72f 73f
8:00pm 8 17 mph 1009.2mb 72f 73f
7:54pm 8 17 mph 1009.2mb 72f 73f
7:48pm 9 14 mph 1009.1mb 72f 73f
7:42pm 9 18 mph 1009.1mb 72f 73f
7:36pm 8 14 mph 1009.1mb 72f 73f
7:30pm 8 15 mph 1009mb 72f 73f
7:24pm 6 16 mph 1008.9mb 72f 73f
7:18pm 7 20 mph 1008.9mb 72f 74f
7:12pm 10 17 mph 1008.8mb 72f 74f
7:06pm 7 16 mph 1008.8mb 72f 74f
7:00pm 10 17 mph 1008.7mb 72f 74f
6:54pm 10 21 mph 1008.7mb 72f 74f
6:48pm 9 16 mph 1008.8mb 72f 74f
6:42pm 9 21 mph 1008.9mb 72f 74f
6:36pm 10 21 mph 1008.8mb 72f 74f
6:30pm 11 22 mph 1008.9mb 72f 74f
6:24pm 9 14 mph 1008.9mb 72f 75f
6:18pm 10 17 mph 1009mb 72f 75f
6:12pm 9 18 mph 1009.1mb 72f 75f
6:06pm 9 21 mph 1009.2mb 72f 75f
6:00pm 14 20 mph 1009.2mb 72f 75f
5:54pm 10 21 mph 1009.3mb 72f 76f